Johnstown, PA

6:19 PM EST on January 16, 2017 (GMT -0500)
Johnstown-Cambria County

Weather History for KJST - November, 2013

Change the Weather History Date:

Sunday, November 3, 2013

  Actual Average Record
Temperature  
Mean Temperature 35 °F 45 °F  
Max Temperature 42 °F 52 °F 76 °F (1971)
Min Temperature 28 °F 38 °F 22 °F (2006)
Degree Days  
Heating Degree Days 30 20  
Month to date heating degree days 63 60  
Since 1 July heating degree days 772 753  
Cooling Degree Days 0 0  
Month to date cooling degree days 0 0  
Year to date cooling degree days 393 382  
Moisture  
Dew Point 30 °F    
Average Humidity 71    
Maximum Humidity 92    
Minimum Humidity 50    
Precipitation  
Precipitation 0.01 in 0.11 in 1.17 in (1927)
Month to date precipitation 0.28 0.35  
Year to date precipitation 31.93 27.70  
Sea Level Pressure  
Sea Level Pressure 30.15 in    
Wind  
Wind Speed 10 mph (NW)    
Max Wind Speed 18 mph    
Max Gust Speed 24 mph    
Visibility 9 miles    
Events Rain , Snow    
T = Trace of Precipitation, MM = Missing Value Source: NWS Daily Summary

Daily Weather History Graph

Daily Weather History Graph

Search for Another Location

Airport or City:

Trip Planner

Search our weather history database for the weather conditions in past years. The results will help you decide how hot, cold, wet, or windy it might be!

Date:

Astronomy

Nov. 03, 2013 Rise Set
Actual Time 6:47 AM EST 5:09 PM EST
Civil Twilight 6:19 AM EST 5:38 PM EST
Nautical Twilight 5:46 AM EST 6:10 PM EST
Astronomical Twilight 5:15 AM EST 6:42 PM EST
Moon 6:49 AM EST (11/3) 5:23 PM EST (11/3)
Length of Visible Light 11h 18m
Length of Day
10h 22m
New Moon, 0% of the Moon is Illuminated
Nov 3
New Moon
Nov 10
First Quarter
Nov 17
Full
Nov 25
Last Quarter
Dec 2
New

Hourly Weather History & Observations

Time (EST) Temp. Windchill Dew Point Humidity Pressure Visibility Wind Dir Wind Speed Gust Speed Precip Events Conditions
12:30 AM 39.2 °F 32.5 °F 37.4 °F 93% 29.89 in 10.0 mi West 10.4 mph - N/A   Overcast
12:54 AM 39.0 °F 32.8 °F 37.9 °F 96% 29.93 in 10.0 mi West 9.2 mph - 0.00 in Rain Light Rain
1:37 AM 39.2 °F 31.2 °F 37.4 °F 93% 29.91 in 6.0 mi WNW 13.8 mph - 0.00 in Rain Light Rain
1:54 AM 39.0 °F 32.8 °F 37.9 °F 96% 29.96 in 5.0 mi NW 9.2 mph - 0.01 in Rain Light Rain
1:02 AM 37.4 °F 29.8 °F 37.4 °F 100% 29.92 in 7.0 mi NNW 11.5 mph - 0.00 in Rain Light Rain
1:19 AM 37.4 °F 29.8 °F 37.4 °F 100% 29.93 in 9.0 mi NNW 11.5 mph 18.4 mph 0.00 in Rain Light Rain
1:40 AM 37.4 °F 29.8 °F 37.4 °F 100% 29.93 in 1.8 mi WNW 11.5 mph - 0.00 in Rain Light Rain
1:48 AM 37.4 °F 28.9 °F 37.4 °F 100% 29.94 in 2.5 mi WNW 13.8 mph - 0.00 in Rain Light Rain
1:54 AM 37.0 °F 28.5 °F 37.0 °F 100% 29.98 in 2.5 mi WNW 13.8 mph - 0.00 in   Overcast
2:04 AM 37.4 °F 28.5 °F 35.6 °F 93% 29.95 in 5.0 mi WNW 15.0 mph - N/A   Overcast
2:54 AM 36.0 °F 26.7 °F 35.1 °F 97% 30.02 in 7.0 mi NW 15.0 mph - 0.00 in Rain Light Rain
3:38 AM 35.6 °F 28.6 °F 33.8 °F 93% 30.00 in 4.0 mi NNW 9.2 mph - 0.00 in Snow Light Snow
3:54 AM 35.1 °F 27.4 °F 34.0 °F 96% 30.05 in 10.0 mi NNW 10.4 mph - 0.00 in   Overcast
4:31 AM 35.6 °F 28.6 °F 32.0 °F 87% 30.03 in 10.0 mi NNW 9.2 mph - N/A   Overcast
4:54 AM 35.1 °F 28.6 °F 33.1 °F 92% 30.09 in 10.0 mi NW 8.1 mph - N/A   Overcast
5:54 AM 33.1 °F 23.9 °F 30.0 °F 89% 30.12 in 10.0 mi NNW 12.7 mph 20.7 mph N/A   Overcast
6:15 AM 33.8 °F 25.8 °F 30.2 °F 87% 30.08 in 10.0 mi North 10.4 mph - N/A   Overcast
6:25 AM 33.8 °F 26.4 °F 30.2 °F 87% 30.08 in 10.0 mi North 9.2 mph - N/A   Overcast
6:54 AM 33.1 °F 25.5 °F 30.0 °F 89% 30.15 in 10.0 mi NNW 9.2 mph - N/A   Overcast
7:44 AM 32.0 °F 23.6 °F 30.2 °F 93% 30.14 in 10.0 mi NNW 10.4 mph - N/A   Scattered Clouds
7:54 AM 32.0 °F 23.6 °F 28.9 °F 88% 30.20 in 10.0 mi NNW 10.4 mph - N/A   Partly Cloudy
8:30 AM 33.8 °F 25.3 °F 30.2 °F 87% 30.17 in 10.0 mi NNW 11.5 mph - N/A   Mostly Cloudy
8:54 AM 33.1 °F 26.1 °F 30.0 °F 89% 30.23 in 10.0 mi NNW 8.1 mph - N/A   Mostly Cloudy
9:54 AM 36.0 °F 29.6 °F 28.9 °F 76% 30.25 in 10.0 mi North 8.1 mph - N/A   Partly Cloudy
10:54 AM 37.9 °F 30.9 °F 28.9 °F 70% 30.27 in 10.0 mi NNW 10.4 mph - N/A   Partly Cloudy
11:54 AM 39.0 °F 32.8 °F 28.0 °F 65% 30.28 in 10.0 mi NW 9.2 mph 19.6 mph N/A   Partly Cloudy
12:54 PM 41.0 °F 34.7 °F 28.0 °F 60% 30.27 in 10.0 mi WNW 10.4 mph - N/A   Clear
1:54 PM 41.0 °F 34.3 °F 26.1 °F 55% 30.27 in 10.0 mi WNW 11.5 mph - N/A   Partly Cloudy
2:54 PM 42.1 °F 34.5 °F 26.1 °F 53% 30.30 in 10.0 mi WNW 15.0 mph 19.6 mph N/A   Scattered Clouds
3:54 PM 39.9 °F 31.8 °F 23.0 °F 51% 30.31 in 10.0 mi WNW 15.0 mph 24.2 mph N/A   Clear
4:54 PM 39.0 °F 31.8 °F 23.0 °F 53% 30.32 in 10.0 mi NW 11.5 mph - N/A   Clear
5:54 PM 36.0 °F 29.6 °F 23.0 °F 59% 30.35 in 10.0 mi NW 8.1 mph - N/A   Clear
6:54 PM 36.0 °F 29.6 °F 21.9 °F 57% 30.37 in 10.0 mi North 8.1 mph - N/A   Clear
7:54 PM 34.0 °F 28.8 °F 21.0 °F 59% 30.40 in 10.0 mi NNW 5.8 mph - N/A   Clear
8:54 PM 32.0 °F 24.8 °F 21.0 °F 64% 30.43 in 10.0 mi NNW 8.1 mph - N/A   Clear
9:54 PM 30.9 °F 23.5 °F 19.9 °F 64% 30.45 in 10.0 mi North 8.1 mph - N/A   Clear
10:54 PM 28.9 °F 22.8 °F 19.9 °F 69% 30.46 in 10.0 mi ENE 5.8 mph - N/A   Clear